Danville, IL

3:03 PM CST on January 18, 2017 (GMT -0600)
Vermilion County

Weather History for KDNV - March, 2013

Change the Weather History Date:

Sunday, March 10, 2013

  Actual Average (KCMI) Record (KCMI)
Temperature  
Mean Temperature 56 °F -  
Max Temperature 61 °F 43 °F 68 °F (2009)
Min Temperature 50 °F 25 °F 9 °F (1998)
Degree Days  
Heating Degree Days 10    
Growing Degree Days 6 (Base 50)    
Moisture  
Dew Point 43 °F    
Average Humidity 65    
Maximum Humidity 93    
Minimum Humidity 51    
Precipitation  
Precipitation 0.02 in - - ()
Sea Level Pressure  
Sea Level Pressure 29.75 in    
Wind  
Wind Speed 17 mph (South)    
Max Wind Speed 23 mph    
Max Gust Speed 36 mph    
Visibility 10 miles    
Events Rain    
Averages and records for this station are not official NWS values.
T = Trace of Precipitation, MM = Missing Value Source: NWS Daily Summary

Daily Weather History Graph

Daily Weather History Graph

Search for Another Location

Airport or City:

Trip Planner

Search our weather history database for the weather conditions in past years. The results will help you decide how hot, cold, wet, or windy it might be!

Date:

Astronomy

Mar. 10, 2013 Rise Set
Actual Time 7:09 AM CDT 6:52 PM CDT
Civil Twilight 6:42 AM CDT 7:19 PM CDT
Nautical Twilight 6:11 AM CDT 7:50 PM CDT
Astronomical Twilight 5:39 AM CDT 8:22 PM CDT
Moon 6:09 AM CDT (3/10) 5:59 PM CDT (3/10)
Length of Visible Light 12h 36m
Length of Day
11h 42m
Waning Crescent, 2% of the Moon is Illuminated
Mar 10
Waning Crescent
Mar 11
New
Mar 19
First Quarter
Mar 27
Full
Apr 2
Last Quarter

Hourly Weather History & Observations

Time (CDT) Temp. Dew Point Humidity Pressure Visibility Wind Dir Wind Speed Gust Speed Precip Events Conditions
12:15 AM 51.8 °F 34.7 °F 52% 29.83 in 10.0 mi South 19.6 mph 26.5 mph N/A   Scattered Clouds
12:35 AM 52.2 °F 35.2 °F 53% 29.83 in 10.0 mi South 20.7 mph 29.9 mph N/A   Mostly Cloudy
12:55 AM 51.8 °F 35.8 °F 54% 29.83 in 10.0 mi South 19.6 mph 25.3 mph N/A   Overcast
1:15 AM 52.3 °F 35.8 °F 53% 29.83 in 10.0 mi South 18.4 mph 26.5 mph N/A   Overcast
1:35 AM 52.9 °F 36.0 °F 53% 29.82 in 10.0 mi South 18.4 mph 26.5 mph N/A   Overcast
1:55 AM 52.5 °F 36.5 °F 54% 29.81 in 10.0 mi South 18.4 mph 27.6 mph N/A   Mostly Cloudy
3:15 AM 52.0 °F 36.7 °F 56% 29.81 in 10.0 mi South 13.8 mph 20.7 mph N/A   Mostly Cloudy
3:35 AM 52.2 °F 36.9 °F 56% 29.80 in 10.0 mi South 15.0 mph 21.9 mph N/A   Mostly Cloudy
3:55 AM 51.6 °F 37.0 °F 58% 29.80 in 10.0 mi South 12.7 mph - N/A   Scattered Clouds
4:15 AM 51.8 °F 37.4 °F 58% 29.80 in 10.0 mi South 13.8 mph - N/A   Scattered Clouds
4:35 AM 50.9 °F 38.3 °F 62% 29.81 in 10.0 mi South 12.7 mph - N/A   Mostly Cloudy
4:55 AM 51.1 °F 38.5 °F 62% 29.82 in 10.0 mi South 12.7 mph - N/A   Mostly Cloudy
5:15 AM 51.4 °F 38.8 °F 62% 29.83 in 10.0 mi South 13.8 mph - N/A   Mostly Cloudy
5:35 AM 53.4 °F 38.7 °F 57% 29.82 in 10.0 mi South 15.0 mph 25.3 mph N/A   Mostly Cloudy
5:55 AM 53.2 °F 39.0 °F 59% 29.83 in 10.0 mi South 15.0 mph 20.7 mph N/A   Overcast
6:15 AM 52.5 °F 39.6 °F 61% 29.83 in 10.0 mi South 16.1 mph 23.0 mph N/A Rain Light Rain
6:35 AM 51.8 °F 39.2 °F 62% 29.83 in 10.0 mi South 13.8 mph - N/A   Scattered Clouds
6:55 AM 52.0 °F 39.4 °F 62% 29.83 in 10.0 mi South 17.3 mph 21.9 mph N/A   Clear
7:15 AM 52.2 °F 39.2 °F 61% 29.83 in 10.0 mi South 13.8 mph - N/A   Clear
7:35 AM 52.2 °F 39.2 °F 61% 29.82 in 10.0 mi South 16.1 mph - N/A   Mostly Cloudy
7:55 AM 52.2 °F 39.2 °F 61% 29.81 in 10.0 mi SSE 16.1 mph 21.9 mph N/A   Mostly Cloudy
8:15 AM 52.2 °F 39.2 °F 61% 29.82 in 10.0 mi SSE 12.7 mph 23.0 mph N/A   Scattered Clouds
8:35 AM 52.7 °F 39.7 °F 61% 29.82 in 10.0 mi South 15.0 mph 24.2 mph N/A   Mostly Cloudy
8:55 AM 53.6 °F 39.7 °F 59% 29.82 in 10.0 mi South 18.4 mph 26.5 mph N/A   Overcast
9:15 AM 53.6 °F 39.7 °F 59% 29.82 in 10.0 mi South 18.4 mph 27.6 mph N/A   Mostly Cloudy
9:35 AM 54.3 °F 40.1 °F 59% 29.82 in 10.0 mi South 19.6 mph 23.0 mph N/A   Mostly Cloudy
9:55 AM 54.3 °F 41.2 °F 61% 29.81 in 7.0 mi South 15.0 mph 24.2 mph N/A   Overcast
10:15 AM 54.7 °F 41.5 °F 61% 29.81 in 10.0 mi South 15.0 mph - N/A   Mostly Cloudy
10:35 AM 54.7 °F 42.1 °F 62% 29.80 in 10.0 mi South 17.3 mph - N/A   Mostly Cloudy
10:55 AM 58.3 °F 44.4 °F 60% 29.79 in 10.0 mi South 20.7 mph 28.8 mph N/A   Scattered Clouds
11:15 AM 58.1 °F 44.6 °F 61% 29.78 in 10.0 mi South 20.7 mph 31.1 mph N/A   Scattered Clouds
11:35 AM 59.5 °F 45.9 °F 61% 29.78 in 10.0 mi South 20.7 mph 24.2 mph N/A   Scattered Clouds
11:55 AM 59.9 °F 46.6 °F 61% 29.79 in 10.0 mi South 18.4 mph 26.5 mph N/A   Scattered Clouds
12:15 PM 59.4 °F 45.7 °F 61% 29.80 in 10.0 mi South 23.0 mph 26.5 mph N/A   Scattered Clouds
12:35 PM 58.8 °F 45.1 °F 60% 29.79 in 10.0 mi South 17.3 mph 26.5 mph N/A   Scattered Clouds
12:55 PM 60.1 °F 45.1 °F 58% 29.78 in 10.0 mi South 19.6 mph 28.8 mph N/A   Scattered Clouds
1:15 PM 61.0 °F 45.3 °F 56% 29.75 in 10.0 mi South 23.0 mph 26.5 mph N/A   Scattered Clouds
1:35 PM 61.2 °F 45.0 °F 55% 29.73 in 10.0 mi South 23.0 mph 31.1 mph N/A   Clear
1:55 PM 61.7 °F 45.1 °F 55% 29.72 in 10.0 mi South 16.1 mph 28.8 mph N/A   Clear
2:15 PM 61.2 °F 45.0 °F 55% 29.71 in 10.0 mi South 17.3 mph 26.5 mph N/A   Clear
2:35 PM 60.8 °F 42.8 °F 52% 29.70 in 10.0 mi South 23.0 mph 35.7 mph N/A   Scattered Clouds
2:55 PM 61.2 °F 44.1 °F 53% 29.70 in 10.0 mi South 15.0 mph 25.3 mph N/A   Scattered Clouds
3:15 PM 60.8 °F 44.1 °F 54% 29.69 in 10.0 mi SSE 19.6 mph 28.8 mph N/A   Clear
3:35 PM 61.0 °F 44.2 °F 54% 29.68 in 10.0 mi SSE 17.3 mph 27.6 mph N/A   Clear
3:55 PM 60.6 °F 43.9 °F 54% 29.66 in 10.0 mi SSE 17.3 mph 31.1 mph N/A   Clear
4:15 PM 59.4 °F 44.6 °F 58% 29.67 in 10.0 mi SE 13.8 mph 19.6 mph N/A   Mostly Cloudy
4:35 PM 60.3 °F 43.9 °F 55% 29.66 in 10.0 mi SSE 17.3 mph 25.3 mph N/A   Mostly Cloudy
4:55 PM 60.6 °F 43.3 °F 53% 29.65 in 10.0 mi SSE 19.6 mph 24.2 mph N/A   Mostly Cloudy
5:15 PM 60.1 °F 42.6 °F 53% 29.66 in 10.0 mi SSE 16.1 mph 25.3 mph N/A   Overcast
5:35 PM 60.3 °F 42.3 °F 51% 29.66 in 10.0 mi SSE 17.3 mph 23.0 mph N/A   Overcast
5:55 PM 60.1 °F 42.8 °F 53% 29.67 in 10.0 mi South 17.3 mph 20.7 mph N/A   Overcast
6:15 PM 59.2 °F 43.7 °F 57% 29.69 in 10.0 mi South 17.3 mph 26.5 mph N/A Rain Light Rain
6:35 PM 55.9 °F 47.3 °F 73% 29.69 in 10.0 mi SSW 17.3 mph 27.6 mph N/A Rain Rain
6:55 PM 54.5 °F 49.3 °F 83% 29.70 in 10.0 mi South 17.3 mph - N/A Rain Light Rain
7:15 PM 54.0 °F 50.0 °F 86% 29.69 in 10.0 mi South 16.1 mph - 0.01 in Rain Light Rain
7:35 PM 54.3 °F 50.0 °F 85% 29.68 in 10.0 mi South 15.0 mph - 0.01 in Rain Light Rain
7:55 PM 54.3 °F 49.5 °F 84% 29.69 in 10.0 mi South 16.1 mph - 0.01 in   Overcast
8:15 PM 54.5 °F 49.1 °F 82% 29.68 in 10.0 mi South 18.4 mph 27.6 mph N/A   Overcast
8:35 PM 54.5 °F 48.9 °F 81% 29.68 in 10.0 mi South 20.7 mph 28.8 mph N/A   Overcast
8:55 PM 54.7 °F 48.7 °F 80% 29.67 in 10.0 mi South 21.9 mph 27.6 mph N/A   Overcast
9:15 PM 54.9 °F 48.7 °F 80% 29.67 in 10.0 mi South 21.9 mph 29.9 mph N/A Rain Light Rain
9:35 PM 54.5 °F 49.3 °F 83% 29.68 in 7.0 mi South 19.6 mph 31.1 mph N/A Rain Light Rain
9:55 PM 53.6 °F 50.0 °F 88% 29.68 in 5.0 mi South 19.6 mph 24.2 mph N/A Rain Light Rain
10:15 PM 53.1 °F 50.5 °F 91% 29.69 in 7.0 mi South 16.1 mph 24.2 mph N/A Rain Light Rain
10:35 PM 53.1 °F 51.1 °F 93% 29.68 in 10.0 mi South 12.7 mph - 0.01 in   Overcast
10:55 PM 53.2 °F 51.1 °F 92% 29.68 in 10.0 mi South 12.7 mph - 0.01 in   Overcast
11:15 PM 53.2 °F 51.1 °F 92% 29.68 in 10.0 mi South 15.0 mph 18.4 mph N/A   Overcast
11:35 PM 53.8 °F 50.7 °F 89% 29.67 in 10.0 mi SSW 18.4 mph 25.3 mph N/A   Overcast
11:55 PM 53.2 °F 50.2 °F 89% 29.67 in 10.0 mi SSW 16.1 mph 23.0 mph N/A   Overcast
12:15 AM 52.7 °F 50.0 °F 91% 29.67 in 10.0 mi SSW 15.0 mph 19.6 mph N/A   Overcast
12:35 AM 52.3 °F 49.5 °F 90% 29.67 in 10.0 mi SSW 15.0 mph - N/A   Overcast
12:55 AM 52.2 °F 49.1 °F 89% 29.67 in 10.0 mi SSW 15.0 mph 21.9 mph N/A   Overcast